Cozumel, Mexico

2:03 AM EST on August 21, 2017 (GMT -0500)
Cozumel

Weather History for MMCZ - October, 2014

Change the Weather History Date:

Thursday, October 9, 2014

  Actual Average Record
Temperature  
Mean Temperature 76 °F -  
Max Temperature 82 °F 85 °F 91 °F (1998)
Min Temperature 69 °F 74 °F 68 °F (2015)
Cooling Degree Days 10    
Growing Degree Days 26 (Base 50)    
Moisture  
Dew Point 74 °F    
Average Humidity 93    
Maximum Humidity 100    
Minimum Humidity 79    
Precipitation  
Precipitation 0.75 in - - ()
Sea Level Pressure  
Sea Level Pressure 29.95 in    
Wind  
Wind Speed 5 mph ()    
Max Wind Speed 17 mph    
Max Gust Speed 28 mph    
Visibility 7.0 miles    
Events Rain , Thunderstorm    
Averages and records for this station are not official NWS values.
T = Trace of Precipitation, MM = Missing Value Source: Averaged Metar Reports

Daily Weather History Graph

Daily Weather History Graph

Search for Another Location

Airport or City:

Trip Planner

Search our weather history database for the weather conditions in past years. The results will help you decide how hot, cold, wet, or windy it might be!

Date:

Astronomy

Oct. 09, 2014 Rise Set
Actual Time 6:40 AM CDT 6:28 PM CDT
Civil Twilight 6:18 AM CDT 6:50 PM CDT
Nautical Twilight 5:53 AM CDT 7:16 PM CDT
Astronomical Twilight 5:27 AM CDT 7:42 PM CDT
Moon 7:37 PM CDT (10/9) 7:45 AM CDT (10/9)
Length of Visible Light 12h 32m
Length of Day
11h 47m
Full, 98% of the Moon is Illuminated
Oct 9
Full
Oct 15
Last Quarter
Oct 23
New
Oct 30
First Quarter
Nov 6
Full

Hourly Weather History & Observations

Time (CDT) Temp. Heat Index Dew Point Humidity Pressure Visibility Wind Dir Wind Speed Gust Speed Precip Events Conditions
12:45 AM 75.2 °F - 73.4 °F 94% 29.97 in 7.0 mi East 4.6 mph - N/A   Scattered Clouds
1:40 AM 75.2 °F - 73.4 °F 94% 29.97 in 7.0 mi East 3.5 mph - N/A   Scattered Clouds
2:40 AM 71.6 °F - 71.6 °F 100% 29.95 in 7.0 mi Calm Calm - N/A   Scattered Clouds
3:40 AM 69.8 °F - 69.8 °F 100% 29.96 in 7.0 mi Calm Calm - N/A   Mostly Cloudy
4:41 AM 71.6 °F - 71.6 °F 100% 29.94 in 7.0 mi Calm Calm - N/A   Scattered Clouds
5:43 AM 73.4 °F - 71.6 °F 94% 29.94 in 7.0 mi NE 3.5 mph - N/A   Scattered Clouds
6:42 AM 73.4 °F - 73.4 °F 100% 29.93 in 7.0 mi Calm Calm - N/A   Mostly Cloudy
7:40 AM 75.2 °F - 71.6 °F 89% 29.96 in 7.0 mi ENE 4.6 mph - N/A   Overcast
8:41 AM 80.6 °F 87.1 °F 77.0 °F 89% 29.97 in 7.0 mi ENE 9.2 mph - N/A   Mostly Cloudy
9:41 AM 82.4 °F 89.5 °F 75.2 °F 79% 30.01 in 8.0 mi ENE 12.7 mph - N/A   Mostly Cloudy
10:40 AM 80.6 °F 87.1 °F 77.0 °F 89% 29.99 in 8.0 mi ENE 13.8 mph - N/A   Mostly Cloudy
11:40 AM 82.4 °F 90.9 °F 77.0 °F 84% 29.98 in 8.0 mi NE 15.0 mph - N/A   Mostly Cloudy
12:40 PM 82.4 °F 90.9 °F 77.0 °F 84% 29.95 in 8.0 mi ENE 17.3 mph - N/A   Mostly Cloudy
1:42 PM 82.4 °F 90.9 °F 77.0 °F 84% 29.93 in 8.0 mi NE 15.0 mph - N/A   Mostly Cloudy
2:41 PM 82.4 °F 90.9 °F 77.0 °F 84% 29.91 in 8.0 mi ENE 16.1 mph - N/A   Mostly Cloudy
3:49 PM 80.6 °F 86.2 °F 75.2 °F 84% 29.93 in 8.0 mi East 13.8 mph - N/A   Mostly Cloudy
4:49 PM 75.2 °F - 75.2 °F 100% 29.91 in 7.0 mi SE 5.8 mph - N/A   Mostly Cloudy
5:40 PM 77.0 °F - 75.2 °F 94% 29.91 in 7.0 mi ENE 4.6 mph - N/A   Mostly Cloudy
6:44 PM 77.0 °F - 73.4 °F 89% 29.92 in 4.0 mi ESE 16.1 mph 27.6 mph N/A Rain Light Rain
7:43 PM 73.4 °F - 73.4 °F 100% 29.94 in 3.0 mi NNE 13.8 mph - N/A Rain , Thunderstorm Thunderstorms and Rain
8:50 PM 71.6 °F - 71.6 °F 100% 29.96 in 6.0 mi Calm Calm - N/A   Overcast
9:53 PM 71.6 °F - 71.6 °F 100% 29.99 in 7.0 mi Calm Calm - N/A   Overcast
10:44 PM 71.6 °F - 71.6 °F 100% 29.96 in 7.0 mi Calm Calm - N/A   Mostly Cloudy
11:42 PM 73.4 °F - 73.4 °F 100% 29.95 in 7.0 mi ENE 3.5 mph - N/A   Scattered Clouds